[[{"header":{"parameterUnit":"m.s-1","parameterCategory":1,"la1":30.2991,"la2":30.254,"lo1":-89.0895,"lo2":-89.0444,"dy":0.0017,"dx":0.0017,"nx":28,"ny":28,"refTime":"2024-06-15T09:00:00:Z","depth":0,"parameterNumber":2,"parameterNumberName":"U-component_of_WINDS"},"data":[0,0,0,0,0,0,0,0,0,0,0,0,0,0,0,0,0,0,0,0,0,0,0,0,0,0,0,0,0,0,0,0,0,0,0,0,0,0,0,0,0,0,0,0,0,0,0,0,0,0,0,0,0,0,0,0,0,0,-2.9575,-2.9574,0,-2.9538,-2.9538,-2.9537,-2.9469,-2.9468,-2.9467,-2.9465,-2.9427,-2.9427,-2.9427,0,0,0,0,0,0,0,0,0,0,0,0,0,-2.9588,-2.9588,-2.9575,-2.9574,-2.9574,-2.9538,-2.9538,-2.9537,-2.9469,-2.9468,-2.9466,-2.9465,-2.9427,-2.9427,-2.9427,0,0,0,0,0,0,0,0,0,0,0,0,0,-2.957,-2.9588,-2.9575,-2.9536,-2.9532,-2.9538,-2.9538,-2.9537,-2.947,-2.9468,-2.9466,-2.9464,-2.9427,-2.9427,-2.9427,-2.9468,0,0,-2.9428,-2.9428,0,0,0,0,0,0,0,0,-2.9571,-2.9569,-2.9542,-2.9539,-2.9534,-2.9506,-2.9528,-2.9514,-2.947,-2.9493,-2.9465,-2.9463,-2.9455,-2.9453,-2.945,-2.9467,-2.9465,-2.9428,-2.9428,-2.9429,-2.9429,0,0,0,0,0,0,0,-2.9572,-2.957,-2.956,-2.9542,-2.9537,-2.9521,-2.9516,-2.9525,-2.9486,-2.9491,-2.9486,-2.9483,-2.9452,-2.945,-2.9449,-2.9464,-2.9428,-2.9429,-2.9429,-2.9429,-2.9516,-2.9518,0,0,0,0,0,0,-2.9579,-2.9572,-2.9561,-2.9559,-2.9548,-2.9522,-2.9517,-2.9517,-2.9485,-2.9479,-2.9485,-2.948,-2.945,-2.9448,-2.9447,-2.9495,-2.9429,-2.9429,-2.9429,-2.9514,-2.9516,-2.9519,0,0,0,0,0,0,-2.958,-2.9579,-2.9563,-2.9564,-2.9561,-2.9524,-2.9525,-2.9517,-2.9515,-2.948,-2.9473,-2.9489,-2.9449,-2.9447,-2.9464,-2.9493,-2.9429,-2.9429,-2.9511,-2.9515,-2.9518,-2.959,0,0,0,0,0,0,-2.958,-2.9579,-2.9594,-2.9565,-2.9561,-2.9581,-2.9527,-2.9518,-2.9516,-2.9509,-2.9483,-2.9476,-2.9447,-2.9464,-2.9465,-2.9492,-2.9429,-2.9509,-2.9513,-2.9516,-2.9585,-2.9595,-2.9604,0,0,0,0,0,-2.9581,-2.9615,-2.9595,-2.9594,-2.9579,-2.9582,-2.958,-2.9546,-2.9518,-2.9533,-2.9511,-2.9477,-2.949,-2.9467,-2.9466,-2.9494,-2.9507,-2.9512,-2.9516,-2.9581,-2.9593,-2.9604,0,0,0,0,0,0,-2.9647,-2.961,-2.9588,-2.9614,-2.9602,-2.9571,-2.9588,-2.956,-2.9555,-2.9549,-2.9507,-2.9501,-2.9525,-2.9511,-2.9486,-2.9534,-2.9493,-2.9498,-2.9542,-2.9554,-2.9563,-2.9566,-2.943,0,0,0,0,0,-2.9665,-2.9671,-2.9638,-2.9664,-2.966,-2.9626,-2.9626,-2.9601,-2.9586,-2.9581,-2.956,-2.9548,-2.9549,-2.955,-2.9549,-2.9583,-2.9577,-2.9602,-2.9612,-2.962,-2.9625,-2.9644,-2.9656,-2.9534,-2.9534,-2.9534,0,0,-2.9701,-2.9682,-2.9688,-2.9677,-2.9665,-2.9673,-2.9621,-2.9631,-2.9637,-2.9582,-2.9598,-2.9583,-2.9566,-2.9593,-2.9603,-2.9582,-2.9657,-2.9626,-2.9633,-2.9633,-2.965,-2.9662,-2.9672,-2.9538,-2.9537,-2.9537,0,0,-2.9772,-2.9757,-2.9779,-2.9768,-2.9751,-2.9728,-2.9734,-2.9708,-2.9696,-2.9712,-2.9672,-2.9678,-2.968,-2.9671,-2.9667,-2.9738,-2.9707,-2.9738,-2.9789,-2.9808,-2.9818,-2.9826,-2.9853,-2.9864,-2.9743,-2.9744,-2.9744,0,-2.9819,-2.9829,-2.9793,-2.9806,-2.9804,-2.9756,-2.9778,-2.9769,-2.9753,-2.9752,-2.9729,-2.9733,-2.9718,-2.9743,-2.9761,-2.9758,-2.9764,-2.9741,-2.9819,-2.9827,-2.9835,-2.986,-2.987,-2.9748,-2.9747,-2.9747,-2.9746,0,-2.989,-2.9897,-2.9917,-2.9904,-2.9903,-2.992,-2.9888,-2.9891,-2.9867,-2.9848,-2.9866,-2.9847,-2.9843,-2.9847,-2.9822,-2.9869,-2.9857,-2.9827,-2.9785,-2.9851,-2.9874,-2.9884,-2.9754,-2.9752,-2.9751,-2.975,0,0,-2.9999,-2.9968,-2.9976,-2.997,-2.9949,-2.9955,-2.9971,-2.9968,-2.9973,-2.9964,-2.9977,-2.9982,-2.9955,-2.9951,-2.9925,-2.9942,-3.0003,-2.991,-2.9909,-2.993,-3.0056,-3.008,-3.0091,-2.9982,-2.9984,-2.9985,-3.0058,0,-3.0066,-3.0093,-3.0062,-3.0095,-3.0103,-3.0059,-3.0074,-3.0063,-3.0046,-3.0051,-3.0031,-3.0037,-3.0,-2.9997,-3.0012,-2.9992,-3.0028,-2.9986,-2.9996,-2.9996,-3.0002,-3.0103,-3.0127,-3.0197,-3.0067,-3.0068,-3.0069,0,-3.0147,-3.0144,-3.0179,-3.0158,-3.016,-3.0174,-3.017,-3.0175,-3.0163,-3.0149,-3.0146,-3.0116,-3.0132,-3.0091,-3.0114,-3.0087,-3.0089,-3.008,-3.0082,-3.0082,-3.0037,-3.0108,-3.0218,-3.0229,-3.0083,-3.0082,-3.0081,0,-3.0227,-3.023,-3.0252,-3.0249,-3.0225,-3.0236,-3.0227,-3.0212,-3.0214,-3.021,-3.0211,-3.0209,-3.0208,-3.0208,-3.018,-3.0152,-3.0207,-3.0163,-3.0197,-3.0198,-3.0211,-3.0211,-3.0325,-3.021,-3.021,-3.021,-3.021,0,-3.0305,-3.0329,-3.0288,-3.0301,-3.0327,-3.0292,-3.0318,-3.0304,-3.0293,-3.0304,-3.0265,-3.0276,-3.0237,-3.0245,-3.0222,-3.0246,-3.0245,-3.0236,-3.023,-3.024,-3.0242,-3.0241,-3.0236,-3.0213,-3.0212,-3.0212,-3.0211,0,-3.0398,-3.0371,-3.0393,-3.0369,-3.0364,-3.0384,-3.0365,-3.0377,-3.0358,-3.0373,-3.0374,-3.0345,-3.0352,-3.0323,-3.0325,-3.031,-3.0346,-3.0331,-3.035,-3.0346,-3.0383,-3.038,-3.0501,-3.0517,-3.0392,-3.0393,-3.0394,0,-3.045,-3.0467,-3.0447,-3.0452,-3.0445,-3.0453,-3.0455,-3.0421,-3.0425,-3.0414,-3.0428,-3.0432,-3.0434,-3.0447,-3.0427,-3.0429,-3.0414,-3.0457,-3.0414,-3.0425,-3.0417,-3.0417,-3.042,-3.0466,-3.0467,-3.0469,-3.047,0,-3.0547,-3.0534,-3.0537,-3.0538,-3.0541,-3.0539,-3.0535,-3.0541,-3.0506,-3.0512,-3.0519,-3.0521,-3.0524,-3.0529,-3.0527,-3.0518,-3.0489,-3.0483,-3.0492,-3.0503,-3.0514,-3.0511,-3.0376,-3.0481,-3.048,-3.0479,-3.0478,-3.0478,-3.0622,-3.0636,-3.0625,-3.0631,-3.0625,-3.0623,-3.0634,-3.0618,-3.0623,-3.0624,-3.0604,-3.0616,-3.0606,-3.0601,-3.0595,-3.0605,-3.0585,-3.0596,-3.0599,-3.0603,-3.0611,-3.0512,-3.0604,-3.0603,-3.0603,-3.0603,-3.0603,0,-3.0718,-3.071,-3.0716,-3.0712,-3.0718,-3.069,-3.0685,-3.0692,-3.0703,-3.0696,-3.0699,-3.0709,-3.0715,-3.0696,-3.0699,-3.0711,-3.0698,-3.0713,-3.0712,-3.0711,-3.0627,-3.062,-3.0724,-3.0724,-3.0724,-3.0724,-3.0724,-3.0724,-3.0769,-3.0793,-3.0779,-3.08,-3.0791,-3.0803,-3.0803,-3.0801,-3.0796,-3.0809,-3.0814,-3.0802,-3.0791,-3.0794,-3.0798,-3.0793,-3.0796,-3.0817,-3.0807,-3.0728,-3.0717,-3.0705,-3.0699,-3.0817,-3.0817,-3.089,-3.0891,-3.0891]},{"header":{"parameterUnit":"m.s-1","parameterCategory":1,"la1":30.2991,"la2":30.254,"lo1":-89.0895,"lo2":-89.0444,"dy":0.0017,"dx":0.0017,"nx":28,"ny":28,"refTime":"2024-06-15T09:00:00:Z","depth":0,"parameterNumber":3,"parameterNumberName":"V-component_of_WINDS"},"data":[0,0,0,0,0,0,0,0,0,0,0,0,0,0,0,0,0,0,0,0,0,0,0,0,0,0,0,0,0,0,0,0,0,0,0,0,0,0,0,0,0,0,0,0,0,0,0,0,0,0,0,0,0,0,0,0,0,0,1.5878,1.5878,0,1.5819,1.5818,1.5817,1.585,1.5851,1.5853,1.5855,1.5785,1.5782,1.5779,0,0,0,0,0,0,0,0,0,0,0,0,0,1.6014,1.6011,1.5878,1.5878,1.5877,1.5819,1.5818,1.5817,1.5849,1.5851,1.5853,1.5855,1.5786,1.5782,1.5778,0,0,0,0,0,0,0,0,0,0,0,0,0,1.5954,1.601,1.5878,1.5886,1.5886,1.5819,1.5818,1.5817,1.5849,1.5851,1.5854,1.5856,1.5788,1.5783,1.5778,1.5697,0,0,1.5762,1.576,0,0,0,0,0,0,0,0,1.5958,1.5949,1.5886,1.5886,1.5886,1.5844,1.584,1.5776,1.5848,1.5863,1.5855,1.5858,1.5802,1.5796,1.5779,1.5693,1.569,1.5762,1.5759,1.5756,1.5755,0,0,0,0,0,0,0,1.5962,1.5952,1.5854,1.5885,1.5885,1.589,1.5885,1.5828,1.5819,1.5862,1.5864,1.5857,1.5803,1.5784,1.5778,1.5689,1.5762,1.5757,1.5754,1.5752,1.5533,1.553,0,0,0,0,0,0,1.5966,1.5955,1.5856,1.5853,1.5929,1.5886,1.588,1.5855,1.582,1.5817,1.5855,1.5859,1.5792,1.5784,1.5776,1.5677,1.5757,1.5752,1.5749,1.5536,1.5532,1.5529,0,0,0,0,0,0,1.5969,1.5957,1.5859,1.5905,1.5893,1.5881,1.5853,1.5852,1.5834,1.5815,1.5813,1.5838,1.5793,1.5783,1.5716,1.5675,1.5749,1.5745,1.5539,1.5535,1.5531,1.548,0,0,0,0,0,0,1.5973,1.5958,1.5929,1.5904,1.589,1.5802,1.5851,1.5849,1.5826,1.583,1.5798,1.5795,1.5794,1.5724,1.5711,1.567,1.5741,1.5543,1.5537,1.5532,1.5486,1.5475,1.5466,0,0,0,0,0,1.5978,1.5915,1.5927,1.5915,1.5853,1.58,1.5792,1.5794,1.5823,1.5792,1.578,1.5796,1.5683,1.5717,1.5703,1.5659,1.5545,1.5539,1.5533,1.549,1.5477,1.5466,0,0,0,0,0,0,1.5932,1.5912,1.5925,1.5853,1.5828,1.5806,1.5767,1.5781,1.5745,1.575,1.5753,1.5745,1.5676,1.5661,1.57,1.5578,1.5618,1.5609,1.559,1.5578,1.5568,1.5572,1.5737,0,0,0,0,0,1.5915,1.5875,1.5859,1.5797,1.5784,1.5778,1.5754,1.5759,1.5732,1.5721,1.5704,1.5676,1.5633,1.5605,1.5565,1.5485,1.5477,1.5448,1.5438,1.543,1.5421,1.5376,1.5362,1.5509,1.5509,1.5509,0,0,1.5876,1.586,1.5834,1.5787,1.5769,1.5726,1.5768,1.5721,1.5688,1.5713,1.565,1.5636,1.5605,1.5531,1.5497,1.5516,1.5379,1.5422,1.5416,1.5411,1.5368,1.5354,1.5342,1.5505,1.5505,1.5506,0,0,1.5783,1.5769,1.5715,1.5696,1.5669,1.5665,1.5653,1.5628,1.5621,1.5559,1.5576,1.5536,1.5464,1.5441,1.5419,1.532,1.5333,1.5307,1.5254,1.521,1.5198,1.5188,1.5151,1.5137,1.5298,1.5298,1.5298,0,1.5738,1.5676,1.5685,1.5637,1.5614,1.5639,1.5583,1.5564,1.5523,1.5506,1.5529,1.544,1.542,1.534,1.5316,1.5299,1.5282,1.5309,1.52,1.519,1.518,1.5144,1.513,1.5295,1.5295,1.5296,1.5296,0,1.5621,1.5578,1.5538,1.5501,1.5475,1.5423,1.5422,1.5394,1.5401,1.5394,1.5329,1.5307,1.5263,1.5245,1.5251,1.5166,1.5178,1.5201,1.524,1.5163,1.5129,1.5116,1.5291,1.5292,1.5293,1.5293,0,0,1.5495,1.5466,1.5451,1.5434,1.5407,1.5372,1.5322,1.5281,1.5256,1.5228,1.5183,1.5123,1.5144,1.512,1.5123,1.5085,1.5005,1.5112,1.5111,1.509,1.4908,1.489,1.4874,1.5016,1.5013,1.5011,1.491,0,1.5399,1.5312,1.5319,1.5236,1.5195,1.5219,1.5174,1.5151,1.5144,1.5106,1.5098,1.5054,1.5086,1.5071,1.5035,1.5023,1.4968,1.5031,1.4971,1.4969,1.4976,1.4857,1.4837,1.4742,1.4897,1.4895,1.4893,0,1.5275,1.5245,1.5159,1.5138,1.5121,1.5081,1.5045,1.501,1.4984,1.4981,1.4955,1.4965,1.4911,1.4955,1.4879,1.4921,1.4898,1.4888,1.4885,1.4876,1.4924,1.4843,1.4712,1.4697,1.4873,1.4875,1.4876,0,1.5189,1.5127,1.5068,1.5053,1.5028,1.4999,1.4986,1.4964,1.4939,1.4907,1.489,1.4852,1.4829,1.4798,1.4796,1.4828,1.4719,1.4763,1.4713,1.4713,1.4686,1.4687,1.4548,1.4676,1.4676,1.4676,1.4677,0,1.5079,1.5024,1.5029,1.4992,1.4931,1.4939,1.4878,1.4869,1.4848,1.4808,1.4826,1.4787,1.4789,1.4749,1.4748,1.4684,1.4674,1.4669,1.4668,1.4666,1.4666,1.4648,1.4653,1.4672,1.4673,1.4674,1.4675,0,1.4971,1.4972,1.4908,1.4891,1.4885,1.4841,1.4825,1.4788,1.4784,1.4733,1.4721,1.4713,1.4668,1.4664,1.461,1.4609,1.4532,1.454,1.4541,1.4541,1.4491,1.4495,1.4332,1.431,1.4455,1.4454,1.4453,0,1.49,1.4859,1.4838,1.4814,1.48,1.4761,1.4737,1.4743,1.4717,1.4685,1.4652,1.4609,1.4574,1.4499,1.4487,1.4446,1.4451,1.4398,1.4445,1.4443,1.4447,1.4449,1.4444,1.4387,1.4385,1.4384,1.4383,0,1.4772,1.4775,1.4741,1.4707,1.4679,1.4652,1.4626,1.4605,1.4609,1.4578,1.4533,1.4506,1.4453,1.4408,1.4369,1.4353,1.4367,1.4369,1.4355,1.435,1.4351,1.4347,1.4513,1.4372,1.4373,1.4374,1.4374,1.4375,1.4678,1.4643,1.4623,1.4584,1.4567,1.4543,1.4508,1.4501,1.4465,1.4423,1.443,1.4379,1.4353,1.4302,1.4284,1.4243,1.426,1.424,1.4235,1.4229,1.4223,1.4361,1.4236,1.4236,1.4236,1.4236,1.4237,0,1.4549,1.4539,1.4503,1.4469,1.4438,1.4459,1.4432,1.4404,1.436,1.4337,1.4304,1.4251,1.4209,1.4195,1.4153,1.4123,1.4128,1.4111,1.4112,1.4107,1.421,1.4226,1.4107,1.4107,1.4107,1.4107,1.4107,1.4107,1.4479,1.4419,1.442,1.4352,1.4341,1.4294,1.4277,1.4254,1.4236,1.4178,1.4143,1.4136,1.4115,1.4073,1.4034,1.4031,1.4013,1.3993,1.3992,1.4087,1.41,1.4113,1.4127,1.399,1.399,1.3892,1.3891,1.3891]}]]